Printer-friendly version

IAU Minor Planet Center

Minor Planet Center

MPEC 2007-W13 : 2007 VM243

The following Minor Planet Electronic Circular may be linked-to from your own Web pages, but must not otherwise be redistributed electronically.


Read MPEC 2007-W12 Read MPEC 2007-W14


M.P.E.C. 2007-W13                                Issued 2007 Nov. 17, 21:52 UT

     The Minor Planet Electronic Circulars contain information on unusual
         minor planets and routine data on comets.  They are published
   on behalf of Commission 20 of the International Astronomical Union by the
          Minor Planet Center, Smithsonian Astrophysical Observatory,
                          Cambridge, MA 02138, U.S.A.

             Prepared using the Tamkin Foundation Computer Network

                              MPC@CFA.HARVARD.EDU
          URL http://www.cfa.harvard.edu/iau/mpc.html  ISSN 1523-6714

                                  2007 VM243

Observations:
     K07VO3M* C2007 11 15.16521 01 08 35.05 +42 06 20.5          20.9 V EW013G96
     K07VO3M  C2007 11 15.16903 01 08 34.22 +42 06 17.8          20.9 V EW013G96
     K07VO3M  C2007 11 15.17282 01 08 33.36 +42 06 14.7          21.0 V EW013G96
     K07VO3M  C2007 11 15.17671 01 08 32.56 +42 06 11.4          21.1 V EW013G96
     K07VO3M  C2007 11 15.22094 01 08 22.97 +42 05 36.8                 EW013G96
     K07VO3M  C2007 11 15.22516 01 08 22.00 +42 05 33.2          21.2 V EW013G96
     K07VO3M  C2007 11 15.22936 01 08 21.11 +42 05 29.8          21.3 V EW013G96
     K07VO3M  C2007 11 15.23360 01 08 20.16 +42 05 26.7          20.9 V EW013G96
     K07VO3M  C2007 11 15.93370 01 05 56.67 +41 55 54.6                 EW013J95
     K07VO3M  C2007 11 15.94863 01 05 53.50 +41 55 42.6          21.0 R EW013J95
     K07VO3M  C2007 11 16.11581 01 05 20.88 +41 53 29.7          21.1 V EW013G96
     K07VO3M  C2007 11 16.12075 01 05 19.80 +41 53 25.2                 EW013G96
     K07VO3M  C2007 11 16.12498 01 05 18.93 +41 53 22.1                 EW013G96
     K07VO3M  C2007 11 16.12824901 05 17.69 +41 53 18.8          21.3 V EW013H55
     K07VO3M  C2007 11 16.13330 01 05 17.04 +41 53 13.6          20.8 R EW013682
     K07VO3M  C2007 11 16.13662101 05 15.90 +41 53 11.6          21.3 V EW013H55
     K07VO3M  C2007 11 16.14254801 05 14.67 +41 53 07.2          21.2 V EW013H55
     K07VO3M  C2007 11 16.15515 01 05 12.46 +41 52 55.5          20.5 R EW013682
     K07VO3M  C2007 11 16.17700 01 05 07.87 +41 52 38.6          20.0 R EW013682
     K07VO3M  C2007 11 17.14213 01 01 57.32 +41 38 57.5          21.4 V EW013G96
     K07VO3M  C2007 11 17.14896 01 01 55.88 +41 38 52.1          20.6 V EW013G96
     K07VO3M  C2007 11 17.15573 01 01 54.55 +41 38 45.3          20.7 V EW013G96
     K07VO3M  C2007 11 17.16245 01 01 53.18 +41 38 39.9          21.3 V EW013G96

Observer details:
682 Kanab.  Observer E. Sheridan.  0.36-m f/5.5 Schmidt-Cassegrain + CCD.
G96 Mt. Lemmon Survey.  Observers A. Boattini, A. D. Grauer.  Measurers
    E. C. Beshore, A. Boattini, G. J. Garradd, A. R. Gibbs, A. D. Grauer,
    R. E. Hill, R. A. Kowalski, S. M. Larson, R. H. McNaught.  1.5-m reflector
    + CCD.
H55 Astronomical Research Observatory, Charleston.  Observer R. Holmes.
    0.81-m f/4.0 astrograph + CCD.
J95 Great Shefford.  Observer P. Birtwhistle.  0.40-m f/6.0 Schmidt-Cassegrain
    + CCD.

Orbital elements:
2007 VM243                                               Earth MOID = 0.1556 AU
Epoch 2007 Oct. 27.0 TT = JDT 2454400.5                 MPC
M 204.36265              (2000.0)            P               Q
n   0.89272298     Peri.  210.49261     -0.90013663     +0.43521504
a   1.0682139      Node   355.19315     -0.34169332     -0.73176511
e   0.3469415      Incl.   12.74813     -0.27018462     -0.52450709
P   1.10           H   20.9           G   0.15           U   9
Residuals in seconds of arc
071115 G96  0.2+  0.1+    071115 J95  0.3+  0.4-    071116 H55  0.4+  0.7+
071115 G96  0.2+  0.4+    071115 J95  0.2-  0.1+    071116 682  1.1-  0.8-
071115 G96  0.2-  0.2+    071116 G96  0.9+  0.2+    071116 682  1.3-  0.2+
071115 G96  0.3+  0.1-    071116 G96  0.4+  0.3-    071117 G96  0.2+  0.2+
071115 G96  0.2+  0.1+    071116 G96  0.6+  0.1-    071117 G96  0.4-  0.6+
071115 G96  0.4-  0.1-    071116 H55  0.6+  0.5+    071117 G96  0.1+  0.4-
071115 G96  0.2-  0.1-    071116 682  1.1-  0.3-    071117 G96  0.0   0.1-
071115 G96  0.5-  0.2+    071116 H55  0.2+  0.2+

Ephemeris:
2007 VM243               a,e,i = 1.07, 0.35, 13                  q = 0.6976
Date    TT    R. A. (2000) Decl.     Delta      r     Elong.  Phase     V
2007 11 16    01 05.73   +41 55.1    0.460    1.383   142.7    25.7    21.1
2007 11 18    00 59.21   +41 26.3    0.463    1.379   140.8    27.0    21.1
2007 11 20    00 53.18   +40 55.2    0.466    1.374   138.7    28.3    21.2
2007 11 22    00 47.64   +40 22.4    0.470    1.368   136.6    29.7    21.2
2007 11 24    00 42.60   +39 48.4    0.475    1.363   134.5    31.1    21.3
2007 11 26    00 38.07   +39 13.7    0.480    1.357   132.3    32.5    21.3
2007 11 28    00 34.04   +38 38.6    0.485    1.352   130.2    33.9    21.4
2007 11 30    00 30.49   +38 03.6    0.491    1.346   128.0    35.3    21.4
2007 12 02    00 27.42   +37 28.9    0.497    1.339   125.9    36.6    21.5
2007 12 04    00 24.81   +36 55.0    0.504    1.333   123.8    37.9    21.6
2007 12 06    00 22.64   +36 21.9    0.510    1.327   121.7    39.2    21.6
2007 12 08    00 20.88   +35 50.0    0.517    1.320   119.6    40.5    21.7
2007 12 10    00 19.53   +35 19.5    0.524    1.313   117.6    41.7    21.7
2007 12 12    00 18.56   +34 50.3    0.531    1.306   115.7    42.8    21.8
2007 12 14    00 17.94   +34 22.8    0.538    1.298   113.7    44.0    21.8
2007 12 16    00 17.66   +33 56.8    0.546    1.291   111.9    45.1    21.9
2007 12 18    00 17.69   +33 32.5    0.553    1.283   110.0    46.1    21.9
2007 12 20    00 18.02   +33 09.9    0.560    1.275   108.2    47.1    21.9
2007 12 22    00 18.63   +32 48.9    0.567    1.267   106.5    48.1    22.0
2007 12 24    00 19.50   +32 29.5    0.574    1.259   104.8    49.1    22.0
2007 12 26    00 20.61   +32 11.7    0.580    1.250   103.1    50.0    22.1

Timothy B. Spahr             (C) Copyright 2007 MPC           M.P.E.C. 2007-W13

Read MPEC 2007-W12 Read MPEC 2007-W14


Our Web policy. Index to the CBAT/MPC/ICQ pages.


Valid HTML 4.01!